Location: B?dimalle
(17.1788°N, 80.5377°E)
Time: 21:41:31
(UTC+00:00)

Altair - All Passes

Search period start: 17 February 2026 00:00
Search period end: 27 February 2026 00:00
Orbit: 1502 x 1682 km, 47.2° (Epoch: 17 February)

Date Brightness Start Highest point End Pass type
(mag) Time Alt. Az. Time Alt. Az. Time Alt. Az.
17 Feb - 03:50:17 10° N 03:53:19 12° NNE 03:56:23 10° NE daylight
17 Feb - 05:51:36 10° NNW 06:00:37 40° NE 06:09:52 10° ESE daylight
17 Feb - 07:55:58 10° NW 08:05:30 54° SW 08:15:16 10° SSE daylight
17 Feb - 18:57:01 10° SSE 19:00:30 13° SE 19:03:57 10° ESE night (unlit)
17 Feb - 20:55:23 10° SW 21:04:32 76° SE 21:13:44 10° NE visible
17 Feb - 23:02:14 10° W 23:09:41 27° NW 23:17:15 10° NNE visible
18 Feb - 03:25:49 10° N 03:27:45 11° NNE 03:29:40 10° NNE daylight
18 Feb - 05:26:30 10° NNW 05:35:16 37° NE 05:44:17 10° ESE daylight
18 Feb - 07:30:36 10° NW 07:40:16 60° SW 07:50:10 10° SSE daylight
18 Feb - 18:34:07 10° SE 18:35:17 10° SE 18:36:27 10° ESE night (unlit)
18 Feb - 20:30:15 10° SSW 20:39:21 68° SE 20:48:27 10° NE visible
18 Feb - 22:36:37 10° W 22:44:21 30° NW 22:52:11 10° NNE visible
19 Feb - 05:01:25 10° NNW 05:09:55 33° NE 05:18:38 10° E daylight
19 Feb - 07:05:17 10° NW 07:15:01 66° SW 07:25:02 10° SSE daylight
19 Feb - 09:16:47 10° WSW 09:19:20 11° SW 09:21:55 10° SW daylight
19 Feb - 20:05:09 10° SSW 20:14:10 61° SE 20:23:09 10° NE visible
19 Feb - 22:11:02 10° W 22:19:00 33° NW 22:27:05 10° NNE visible
20 Feb - 04:36:21 10° NNW 04:44:33 30° NE 04:52:58 10° E daylight
20 Feb - 06:40:00 10° NW 06:49:47 73° SW 06:59:51 10° SSE daylight
20 Feb - 08:49:49 10° W 08:54:05 13° SW 08:58:25 10° SSW daylight
20 Feb - 19:40:05 10° SSW 19:48:59 54° SE 19:57:49 10° NE night (unlit)
20 Feb - 21:45:29 10° WSW 21:53:42 36° NW 22:02:00 10° NNE visible
20 Feb - 23:59:58 10° NNW 00:01:03 10° NNW 00:02:09 10° N visible
21 Feb - 04:11:18 10° NNW 04:19:11 28° NE 04:27:14 10° E daylight
21 Feb - 06:14:44 10° NW 06:24:32 81° SW 06:34:39 10° SE daylight
21 Feb - 08:23:28 10° W 08:28:50 16° SW 08:34:18 10° SSW daylight
21 Feb - 19:15:03 10° SSW 19:23:49 48° SE 19:32:28 10° ENE night (unlit)
21 Feb - 21:19:58 10° WSW 21:28:24 40° NW 21:36:54 10° NNE visible
21 Feb - 23:33:07 10° NW 23:35:30 11° NNW 23:37:55 10° N visible
22 Feb - 03:46:16 10° NNW 03:53:47 25° NE 04:01:27 10° E daylight
22 Feb - 05:49:29 10° NW 05:59:17 88° SW 06:09:24 10° SE daylight
22 Feb - 07:57:24 10° W 08:03:36 18° SW 08:09:54 10° SSW daylight
22 Feb - 18:50:02 10° SSW 18:58:38 43° SE 19:07:05 10° ENE night (unlit)
22 Feb - 20:54:30 10° WSW 21:03:07 44° NW 21:11:47 10° NNE visible
22 Feb - 23:06:44 10° NW 23:09:58 12° NNW 23:13:15 10° N visible
23 Feb - 03:21:15 10° NNW 03:28:23 23° NNE 03:35:39 10° E daylight
23 Feb - 05:24:16 10° NW 05:34:01 84° NE 05:44:07 10° SE daylight
23 Feb - 07:31:31 10° W 07:38:22 21° SW 07:45:22 10° S daylight
23 Feb - 18:25:06 10° SSW 18:33:27 38° SE 18:41:40 10° ENE night (unlit)
23 Feb - 20:29:03 10° WSW 20:37:51 49° NW 20:46:40 10° NNE visible
23 Feb - 22:40:32 10° NW 22:44:28 13° NNW 22:48:27 10° N visible
24 Feb - 02:56:15 10° NNW 03:02:57 21° NNE 03:09:46 10° ENE daylight
24 Feb - 04:59:04 10° NW 05:08:46 77° NE 05:18:48 10° SE daylight
24 Feb - 07:05:45 10° WNW 07:13:08 24° SW 07:20:42 10° S daylight
24 Feb - 18:00:12 10° S 18:08:16 34° SE 18:16:13 10° ENE night (unlit)
24 Feb - 20:03:39 10° WSW 20:12:37 55° NW 20:21:32 10° NNE visible
24 Feb - 22:14:27 10° NW 22:18:59 14° NNW 22:23:34 10° N visible
25 Feb - 02:31:17 10° NNW 02:37:30 19° NNE 02:43:51 10° ENE daylight
25 Feb - 04:33:53 10° NW 04:43:30 70° NE 04:53:27 10° SE daylight
25 Feb - 06:40:05 10° WNW 06:47:55 27° SW 06:55:56 10° S daylight
25 Feb - 17:35:20 10° S 17:43:05 30° SE 17:50:41 10° ENE night (unlit)
25 Feb - 19:38:17 10° WSW 19:47:21 61° NW 19:56:24 10° NE night (unlit)
25 Feb - 21:48:26 10° WNW 21:53:32 16° NNW 21:58:39 10° N visible
26 Feb - 02:06:19 10° N 02:12:03 17° NNE 02:17:52 10° ENE daylight
26 Feb - 04:08:44 10° NW 04:18:14 63° NE 04:28:05 10° SE daylight
26 Feb - 06:14:30 10° WNW 06:22:41 31° SW 06:31:06 10° S daylight
26 Feb - 17:10:32 10° S 17:17:55 26° SE 17:25:07 10° ENE night (unlit)
26 Feb - 19:12:56 10° SW 19:22:08 67° NW 19:31:14 10° NE night (unlit)
26 Feb - 21:22:29 10° WNW 21:28:05 17° NNW 21:33:42 10° N visible
